Location: Binningen
(47.7924°N, 8.7261°E)
Time: 20:42:14
(UTC+00:00)

Cosmos 2228 Rocket - Pass Details

Date: 17 May 2021
Orbit: 618 x 652 km, 82.5° (Epoch: 21 June)

Event Time Altitude Azimuth Distance (km) Brightness Sun altitude
Exits shadow 20:40:34 - 192° (SSW) 2,160 5.5 -13.6°
Reaches altitude 10° 20:40:57 10° 193° (SSW) 2,002 5.3 -13.7°
Maximum altitude 20:45:24 79° 280° (W) 652 3.2 -14.1°
Drops below altitude 10° 20:49:56 10° 7° (N) 2,040 6.4 -14.6°
Sets 20:52:12 0° 9° (N) 2,959 7.3 -14.8°
